CW5478 Weather Reports


time (UTC)temp
C
wind
direction
speed
KPH
gust
KPH
rain 1hr
cm
rain 24hr
cm
rain mn
cm
humidity
%
barometer
mb
20260505122305 2 270 8.0 9.7 0.00 0.00 0.00 83 1017.9
20260505121802 2 315 8.0 11.3 0.00 0.00 0.00 83 1017.9
20260505121302 2 315 8.0 12.9 0.00 0.00 0.00 83 1018.0
20260505120802 2 315 9.7 14.5 0.00 0.00 0.00 82 1017.9
20260505120302 2 315 9.7 12.9 0.00 0.00 0.00 81 1017.9
20260505115803 2 315 11.3 19.3 0.00 0.00 0.00 80 1018.2
20260505115304 2 315 11.3 16.1 0.00 0.00 0.00 79 1017.9
20260505114803 2 318 8.0 14.5 0.00 0.00 0.00 78 1017.9
20260505113802 2 270 12.9 16.1 0.00 0.00 0.00 77 1017.9
20260505113302 3 292 11.3 16.1 0.00 0.00 0.00 76 1017.9
20260505112802 3 324 9.7 12.9 0.00 0.00 0.00 74 1017.9
20260505112304 3 315 9.7 12.9 0.00 0.00 0.00 73 1017.9
20260505111802 3 315 8.0 11.3 0.00 0.00 0.00 72 1017.6
20260505111302 3 315 9.7 11.3 0.00 0.00 0.00 72 1017.7
20260505110802 3 292 8.0 9.7 0.00 0.00 0.00 72 1017.9
20260505110302 3 292 4.8 8.0 0.00 0.00 0.00 72 1017.9
20260505101303 3 292 9.7 12.9 0.00 0.00 0.00 74 1018.2
20260505100302 3 270 4.8 9.7 0.00 0.00 0.00 74 1018.0
20260505095802 3 270 9.7 9.7 0.00 0.00 0.00 75 1018.3
20260505095304 3 270 4.8 8.0 0.00 0.00 0.00 75 1018.3
20260505094803 3 270 4.8 8.0 0.00 0.00 0.00 75 1018.6
20260505094303 3 292 4.8 8.0 0.00 0.00 0.00 74 1018.6
20260505093802 3 315 4.8 11.3 0.00 0.00 0.00 74 1018.6
20260505093302 3 334 8.0 9.7 0.00 0.00 0.00 73 1018.6
20260505092802 3 315 8.0 9.7 0.00 0.00 0.00 71 1018.6
20260505092305 3 359 8.0 11.3 0.00 0.00 0.00 71 1018.6
20260505091803 4 292 9.7 12.9 0.00 0.00 0.00 70 1018.6
20260505091302 4 311 9.7 12.9 0.00 0.00 0.00 70 1018.6
20260505090802 4 279 8.0 9.7 0.00 0.00 0.00 70 1018.6
20260505085802 4 225 6.4 8.0 0.00 0.00 0.00 69 1018.6
20260505085304 4 225 6.4 11.3 0.00 0.00 0.00 69 1018.6
20260505084802 4 225 9.7 12.9 0.00 0.00 0.00 69 1018.6
20260505084302 4 225 4.8 8.0 0.00 0.00 0.00 69 1018.6
20260505083802 4 225 8.0 9.7 0.00 0.00 0.00 69 1018.6
20260505083303 4 180 1.6 8.0 0.00 0.00 0.00 69 1018.7
20260505082803 4 180 6.4 9.7 0.00 0.00 0.00 68 1018.6
20260505082304 4 135 4.8 8.0 0.00 0.00 0.00 67 1018.9
20260505081802 5 103 4.8 8.0 0.00 0.00 0.00 67 1018.9
20260505081302 5 135 8.0 9.7 0.00 0.00 0.00 67 1018.9
20260505080803 5 180 3.2 8.0 0.00 0.00 0.00 65 1018.9
20260505080302 5 45 1.6 8.0 0.00 0.00 0.00 64 1018.6
20260505075803 5 270 9.7 11.3 0.00 0.00 0.00 64 1018.6
20260505074803 6 247 11.3 12.9 0.00 0.00 0.00 63 1018.9
20260505074302 6 270 6.4 12.9 0.00 0.00 0.00 63 1018.9
20260505073803 6 270 8.0 12.9 0.00 0.00 0.00 64 1018.9
20260505073303 6 270 11.3 14.5 0.00 0.00 0.00 63 1018.9
20260505072304 6 270 8.0 9.7 0.00 0.00 0.00 61 1018.9
20260505071802 6 270 9.7 11.3 0.00 0.00 0.00 61 1019.0
20260505071303 6 270 6.4 9.7 0.00 0.00 0.00 61 1019.3
20260505070803 6 270 9.7 12.9 0.00 0.00 0.00 63 1019.3
20260505065803 5 270 6.4 12.9 0.00 0.00 0.00 64 1019.2
20260505065303 5 270 9.7 12.9 0.00 0.00 0.00 64 1018.9
20260505064802 6 270 8.0 14.5 0.00 0.00 0.00 64 1019.2
20260505064303 6 270 12.9 16.1 0.00 0.00 0.00 65 1019.2
20260505063803 6 247 9.7 12.9 0.00 0.00 0.00 65 1019.2
20260505063303 6 247 9.7 12.9 0.00 0.00 0.00 65 1019.0
20260505062802 5 247 9.7 12.9 0.00 0.00 0.00 67 1019.0
20260505062304 5 225 11.3 12.9 0.00 0.00 0.00 68 1019.3
20260505061803 6 247 11.3 12.9 0.00 0.00 0.00 68 1019.3
20260505061302 6 270 9.7 11.3 0.00 0.00 0.00 68 1019.3
20260505060902 6 247 9.7 11.3 0.00 0.00 0.00 68 1019.3
20260505060303 6 253 8.0 9.7 0.00 0.00 0.00 68 1019.3
20260505055803 6 303 3.2 4.8 0.00 0.00 0.00 67 1019.3
20260505055304 6 346 1.6 3.2 0.00 0.00 0.00 67 1019.3
20260505054802 6 0 3.2 9.7 0.00 0.00 0.00 66 1019.3
20260505054303 7 0 9.7 12.9 0.00 0.00 0.00 64 1019.3
20260505053802 7 260 9.7 11.3 0.00 0.00 0.00 62 1019.3
20260505053303 7 270 9.7 11.3 0.00 0.00 0.00 60 1019.3
20260505052803 7 287 8.0 11.3 0.00 0.00 0.00 59 1019.3
20260505052304 7 315 8.0 12.9 0.00 0.00 0.00 60 1019.3
20260505051802 7 315 9.7 12.9 0.00 0.00 0.00 61 1019.3
20260505051302 7 270 8.0 14.5 0.00 0.00 0.00 62 1019.3
20260505050303 7 270 11.3 12.9 0.00 0.00 0.00 60 1019.3
20260505040802 8 270 11.3 20.9 0.00 0.00 0.00 59 1019.3
20260505040302 8 270 14.5 20.9 0.00 0.00 0.00 61 1019.3
20260505035802 7 225 14.5 16.1 0.00 0.00 0.00 62 1019.3
20260505035304 7 225 11.3 14.5 0.00 0.00 0.00 62 1019.3
20260505034303 8 225 11.3 14.5 0.00 0.00 0.00 60 1018.9
20260505033803 8 225 11.3 14.5 0.00 0.00 0.00 61 1018.9
20260505033302 7 225 14.5 19.3 0.00 0.00 0.00 64 1018.9
20260505032802 7 225 12.9 16.1 0.00 0.00 0.00 65 1018.9
20260505032304 7 225 9.7 14.5 0.00 0.00 0.00 65 1018.9
20260505031803 7 225 9.7 12.9 0.00 0.00 0.00 64 1018.6
20260505031303 7 225 8.0 11.3 0.00 0.00 0.00 64 1018.6
20260505030303 7 225 11.3 12.9 0.00 0.00 0.00 66 1018.6
20260505025803 8 225 9.7 12.9 0.00 0.00 0.00 63 1018.9
20260505025304 8 225 14.5 22.5 0.00 0.00 0.00 61 1018.9
20260505024802 8 217 16.1 25.7 0.00 0.00 0.00 59 1018.9
20260505024303 8 225 19.3 25.7 0.00 0.00 0.00 60 1018.9
20260505023803 8 225 12.9 19.3 0.00 0.00 0.00 60 1018.6
20260505023303 8 225 12.9 19.3 0.00 0.00 0.00 59 1018.6
20260505022803 8 180 16.1 20.9 0.00 0.00 0.00 58 1018.6
20260505021302 9 180 8.0 9.7 0.00 0.00 0.00 57 1018.2
20260505020802 9 90 4.8 9.7 0.00 0.00 0.00 57 1018.2
20260505020303 9 90 9.7 12.9 0.00 0.00 0.00 57 1018.2
20260505015803 10 112 11.3 14.5 0.00 0.00 0.00 55 1018.2
20260505015303 10 270 8.0 9.7 0.00 0.00 0.00 54 1018.0
20260505014303 10 270 4.8 9.7 0.00 0.00 0.00 53 1017.9
20260505013303 10 0 8.0 14.5 0.00 0.00 0.00 51 1017.9
20260505012802 10 315 11.3 19.3 0.00 0.00 0.00 51 1017.9
20260505011303 12 154 8.0 11.3 0.00 0.00 0.00 40 1017.9
20260505010803 12 229 9.7 20.9 0.00 0.00 0.00 40 1017.9
20260505010303 12 251 4.8 11.3 0.00 0.00 0.00 40 1017.6
20260505005304 12 225 4.8 11.3 0.00 0.00 0.00 39 1017.6
20260505004303 12 125 12.9 24.1 0.00 0.00 0.00 40 1017.6
20260505003803 12 225 14.5 25.7 0.00 0.00 0.00 40 1017.6
20260505003303 12 218 9.7 19.3 0.00 0.00 0.00 40 1017.9
20260505002803 12 131 9.7 19.3 0.00 0.00 0.00 40 1017.9
20260505002304 12 226 11.3 20.9 0.00 0.00 0.00 40 1017.9
20260505001803 12 225 20.9 33.8 0.00 0.00 0.00 40 1017.9
20260505001302 13 252 20.9 33.8 0.00 0.00 0.00 39 1017.9
20260505000803 13 286 6.4 19.3 0.00 0.00 0.00 37 1017.9
20260505000303 13 0 4.8 8.0 0.00 0.00 0.00 37 1017.9
20260504235802 13 225 9.7 12.9 0.00 0.00 0.00 37 1017.9
20260504235304 13 45 1.6 4.8 0.00 0.00 0.00 37 1017.9
20260504234803 13 120 1.6 4.8 0.00 0.00 0.00 37 1017.9
20260504234303 13 225 1.6 9.7 0.00 0.00 0.00 37 1017.9
20260504233303 13 146 3.2 9.7 0.00 0.00 0.00 37 1017.9
20260504231802 12 150 3.2 4.8 0.00 0.00 0.00 38 1017.9
20260504231303 12 150 6.4 11.3 0.00 0.00 0.00 38 1017.9
20260504230803 13 90 9.7 20.9 0.00 0.00 0.00 39 1017.9
20260504230303 13 45 12.9 20.9 0.00 0.00 0.00 38 1017.9
20260504225803 13 90 11.3 19.3 0.00 0.00 0.00 38 1017.6
20260504225304 13 45 9.7 19.3 0.00 0.00 0.00 38 1017.9
20260504224304 13 30 4.8 12.9 0.00 0.00 0.00 39 1017.6
20260504223803 13 45 8.0 14.5 0.00 0.00 0.00 38 1017.9
20260504223303 13 90 4.8 19.3 0.00 0.00 0.00 38 1017.9
20260504222802 13 45 9.7 20.9 0.00 0.00 0.00 38 1017.9
20260504222304 13 87 12.9 24.1 0.00 0.00 0.00 38 1017.9
20260504221802 13 76 19.3 25.7 0.00 0.00 0.00 39 1017.9
20260504220803 13 90 9.7 14.5 0.00 0.00 0.00 38 1017.9
20260504220302 13 291 4.8 12.9 0.00 0.00 0.00 39 1018.2
20260504215802 13 45 6.4 16.1 0.00 0.00 0.00 39 1018.2
20260504215304 13 82 14.5 19.3 0.00 0.00 0.00 38 1018.2
20260504214303 12 110 9.7 32.2 0.00 0.00 0.00 38 1018.6
20260504213803 12 157 4.8 19.3 0.00 0.00 0.00 39 1018.6
20260504213302 12 93 1.6 12.9 0.00 0.00 0.00 40 1018.6
20260504212304 13 45 16.1 24.1 0.00 0.00 0.00 39 1018.6
20260504211803 13 45 11.3 14.5 0.00 0.00 0.00 39 1018.9
20260504211302 13 11 9.7 14.5 0.00 0.00 0.00 39 1018.9
20260504210802 13 225 14.5 19.3 0.00 0.00 0.00 39 1018.6
20260504210303 13 198 9.7 16.1 0.00 0.00 0.00 40 1018.9
20260504205304 13 345 9.7 22.5 0.00 0.00 0.00 40 1018.9
20260504204303 12 0 11.3 22.5 0.00 0.00 0.00 42 1019.3
20260504203803 12 314 16.1 25.7 0.00 0.00 0.00 42 1019.3
20260504203303 12 17 19.3 33.8 0.00 0.00 0.00 42 1019.6
20260504202803 12 305 20.9 27.4 0.00 0.00 0.00 41 1019.6
20260504202304 12 276 19.3 35.4 0.00 0.00 0.00 41 1019.3
20260504201803 12 277 19.3 38.6 0.00 0.00 0.00 41 1019.6
20260504201303 12 306 14.5 27.4 0.00 0.00 0.00 42 1019.6
20260504200803 11 260 19.3 35.4 0.00 0.00 0.00 42 1019.6
20260504195803 12 284 19.3 27.4 0.00 0.00 0.00 42 1019.6
20260504194803 12 242 22.5 40.2 0.00 0.00 0.00 43 1019.6
20260504194303 12 250 17.7 37.0 0.00 0.00 0.00 43 1019.6
20260504193803 12 265 22.5 35.4 0.00 0.00 0.00 43 1019.3
20260504193303 12 253 29.0 45.1 0.00 0.00 0.00 42 1019.6
20260504192304 12 265 24.1 35.4 0.00 0.00 0.00 44 1019.6
20260504191803 11 224 22.5 49.9 0.00 0.00 0.00 46 1019.6
20260504191302 11 241 32.2 41.8 0.00 0.00 0.00 49 1019.6
20260504190803 11 236 29.0 45.1 0.00 0.00 0.00 50 1019.6
20260504190303 11 240 22.5 37.0 0.00 0.00 0.00 48 1019.6
20260504185803 12 230 32.2 41.8 0.00 0.00 0.00 44 1019.6
20260504185304 12 264 22.5 41.8 0.00 0.00 0.00 40 1019.6
20260504184803 12 247 27.4 41.8 0.00 0.00 0.00 38 1019.9
20260504184303 13 276 20.9 46.7 0.00 0.00 0.00 37 1019.6
20260504183803 13 242 14.5 24.1 0.00 0.00 0.00 38 1019.9
20260504183302 12 199 4.8 14.5 0.00 0.00 0.00 38 1019.9
20260504182803 12 250 14.5 37.0 0.00 0.00 0.00 38 1019.9
20260504181803 13 255 22.5 35.4 0.00 0.00 0.00 38 1020.3
20260504181303 12 263 9.7 27.4 0.00 0.00 0.00 38 1020.3
20260504180803 12 260 9.7 25.7 0.00 0.00 0.00 38 1020.3
20260504180303 12 245 8.0 22.5 0.00 0.00 0.00 40 1020.3
20260504175803 12 287 12.9 27.4 0.00 0.00 0.00 40 1020.3
20260504175304 12 314 25.7 46.7 0.00 0.00 0.00 39 1020.3
20260504174802 12 311 22.5 38.6 0.00 0.00 0.00 39 1020.3
20260504174303 11 282 14.5 35.4 0.00 0.00 0.00 39 1020.3
20260504173802 11 281 19.3 35.4 0.00 0.00 0.00 38 1020.3
20260504172803 12 263 25.7 38.6 0.00 0.00 0.00 39 1020.3
20260504172304 12 253 19.3 27.4 0.00 0.00 0.00 39 1020.3
20260504171802 12 241 20.9 35.4 0.00 0.00 0.00 40 1020.3
20260504171303 12 270 20.9 35.4 0.00 0.00 0.00 40 1020.3
20260504170803 12 242 25.7 35.4 0.00 0.00 0.00 39 1020.3
20260504170303 11 269 22.5 41.8 0.00 0.00 0.00 39 1020.3
20260504150803 10 22 4.8 19.3 0.00 0.00 0.00 48 1021.6
20260504150303 9 1 14.5 22.5 0.00 0.00 0.00 51 1021.6
20260504141303 6 283 16.1 41.8 0.00 0.00 0.00 61 1021.7
20260504130804 6 282 14.5 32.2 0.00 0.00 0.00 62 1020.6
20260504130304 5 245 6.4 14.5 0.00 0.00 0.00 63 1021.0